Overview Statistics Trail Chart Weather Telemetry Raw packets
 

This is the latest recevied weather packets stored in our database for station/object KK6MIG-13. If no packets are shown the sender has not sent any weather packets the latest 10 day(s).

<< 526 527 528 529 530 531 532 >>
Time Temp. Humidity Pressure Rain* Wind** Luminosity Snow
1787785855 17.78° C 28% 1013.3 hPa 0 mm - 663 W/m² -
1787785794 17.78° C 25% 1013.3 hPa 0 mm - 666 W/m² -
1787785736 17.78° C 21% 1013.3 hPa 0 mm - 670 W/m² -
1787785674 17.78° C 20% 1013.3 hPa 0 mm - 671 W/m² -
1787785608 17.22° C 23% 1013.4 hPa 0 mm - 675 W/m² -
1787785546 17.22° C 23% 1013.4 hPa 0 mm - 677 W/m² -
1787785486 17.22° C 21% 1013.3 hPa 0 mm - 679 W/m² -
1787785425 17.22° C 17% 1013.3 hPa 0 mm - 682 W/m² -
1787785367 17.22° C 20% 1013.4 hPa 0 mm - 684 W/m² -
1787785302 17.22° C 19% 1013.4 hPa 0 mm - 689 W/m² -
1787785242 17.22° C 20% 1013.4 hPa 0 mm - 691 W/m² -
1787785182 17.22° C 19% 1013.4 hPa 0 mm - 694 W/m² -
1787785122 17.22° C 19% 1013.3 hPa 0 mm - 696 W/m² -
1787785062 17.22° C 15% 1013.4 hPa 0 mm - 698 W/m² -
1787785003 17.22° C 15% 1013.4 hPa 0 mm - 703 W/m² -
1787784942 17.22° C 10% 1013.4 hPa 0 mm - 705 W/m² -
1787784891 16.67° C 17% 1013.5 hPa 0 mm - 710 W/m² -
1787784886 17.22° C 13% 1013.5 hPa 0 mm - 707 W/m² -
1787784768 17.22° C 14% 1013.5 hPa 0 mm - 710 W/m² -
1787784764 16.67° C 19% 1013.5 hPa 0 mm - 710 W/m² -
1787784646 16.67° C 18% 1013.5 hPa 0 mm - 719 W/m² -
1787784642 16.67° C 17% 1013.6 hPa 0 mm - 708 W/m² -
1787784518 16.67° C 18% 1013.5 hPa 0 mm - 724 W/m² -
1787784467 17.22° C 14% 1013.6 hPa 0 mm - 724 W/m² -
1787784463 17.22° C 17% 1013.6 hPa 0 mm - 722 W/m² -

* Rain latest hour (hover to see other rain measurements)
** Current wind speed in m/s (hover to see current wind gust speed)